| time (UTC) | temp F | wind direction | speed MPH | gust MPH | rain 1hr in | rain 24hr in | rain mn in | humidity % | barometer mb |
| 20260504205004 | 78 | 171 | 8.0 | 13.0 | 0.00 | 0.00 | 0.00 | 39 | 1014.2 |
| 20260504204500 | 79 | 187 | 7.0 | 12.0 | 0.00 | 0.00 | 0.00 | 38 | 1014.3 |
| 20260504204001 | 79 | 128 | 8.0 | 13.0 | 0.00 | 0.00 | 0.00 | 37 | 1014.4 |
| 20260504203459 | 79 | 136 | 9.0 | 13.0 | 0.00 | 0.00 | 0.00 | 37 | 1014.4 |
| 20260504203001 | 79 | 211 | 7.0 | 11.0 | 0.00 | 0.00 | 0.00 | 37 | 1014.4 |
| 20260504202459 | 79 | 140 | 6.0 | 14.0 | 0.00 | 0.00 | 0.00 | 37 | 1014.5 |
| 20260504201959 | 78 | 198 | 7.0 | 14.0 | 0.00 | 0.00 | 0.00 | 36 | 1014.6 |
| 20260504201500 | 79 | 210 | 9.0 | 13.0 | 0.00 | 0.00 | 0.00 | 37 | 1014.8 |
| 20260504200459 | 79 | 168 | 6.0 | 13.0 | 0.00 | 0.00 | 0.00 | 38 | 1014.9 |
| 20260504200000 | 79 | 207 | 6.0 | 12.0 | 0.00 | 0.00 | 0.00 | 37 | 1015.0 |
| 20260504194459 | 79 | 179 | 7.0 | 12.0 | 0.00 | 0.00 | 0.00 | 36 | 1015.1 |
| 20260504194000 | 79 | 163 | 8.0 | 14.0 | 0.00 | 0.00 | 0.00 | 37 | 1015.5 |
| 20260504193459 | 78 | 198 | 8.0 | 17.0 | 0.00 | 0.00 | 0.00 | 37 | 1015.4 |
| 20260504193225 | 79 | 211 | 11.0 | 17.0 | 0.00 | 0.00 | 0.00 | 36 | 1015.4 |
| 20260504192500 | 79 | 172 | 5.0 | 13.0 | 0.00 | 0.00 | 0.00 | 41 | 1015.5 |
| 20260504192000 | 78 | 155 | 6.0 | 12.0 | 0.00 | 0.00 | 0.00 | 40 | 1015.6 |
| 20260504191459 | 78 | 182 | 7.0 | 11.0 | 0.00 | 0.00 | 0.00 | 37 | 1015.6 |
| 20260504190959 | 78 | 204 | 7.0 | 13.0 | 0.00 | 0.00 | 0.00 | 38 | 1015.4 |
| 20260504185500 | 79 | 213 | 6.0 | 14.0 | 0.00 | 0.00 | 0.00 | 38 | 1015.8 |
| 20260504185000 | 78 | 146 | 6.0 | 14.0 | 0.00 | 0.00 | 0.00 | 39 | 1015.8 |
| 20260504184501 | 78 | 187 | 6.0 | 14.0 | 0.00 | 0.00 | 0.00 | 39 | 1015.9 |
| 20260504184000 | 78 | 212 | 6.0 | 15.0 | 0.00 | 0.00 | 0.00 | 39 | 1016.0 |
| 20260504183000 | 77 | 192 | 6.0 | 16.0 | 0.00 | 0.00 | 0.00 | 40 | 1016.0 |
| 20260504182500 | 77 | 179 | 8.0 | 16.0 | 0.00 | 0.00 | 0.00 | 40 | 1016.2 |
| 20260504181458 | 78 | 173 | 6.0 | 14.0 | 0.00 | 0.00 | 0.00 | 41 | 1016.2 |
| 20260504181002 | 78 | 230 | 7.0 | 14.0 | 0.00 | 0.00 | 0.00 | 40 | 1016.1 |
| 20260504180459 | 78 | 195 | 7.0 | 15.0 | 0.00 | 0.00 | 0.00 | 41 | 1016.1 |
| 20260504180002 | 78 | 171 | 7.0 | 14.0 | 0.00 | 0.00 | 0.00 | 42 | 1016.1 |
| 20260504175005 | 78 | 226 | 6.0 | 13.0 | 0.00 | 0.00 | 0.00 | 43 | 1016.2 |
| 20260504174500 | 78 | 221 | 8.0 | 13.0 | 0.00 | 0.00 | 0.00 | 39 | 1016.3 |
| 20260504174004 | 78 | 188 | 6.0 | 11.0 | 0.00 | 0.00 | 0.00 | 42 | 1016.3 |
| 20260504173500 | 78 | 189 | 5.0 | 9.0 | 0.00 | 0.00 | 0.00 | 42 | 1016.3 |
| 20260504173005 | 78 | 193 | 6.0 | 14.0 | 0.00 | 0.00 | 0.00 | 42 | 1016.2 |
| 20260504172500 | 77 | 169 | 8.0 | 15.0 | 0.00 | 0.00 | 0.00 | 43 | 1016.1 |
| 20260504171004 | 77 | 220 | 8.0 | 15.0 | 0.00 | 0.00 | 0.00 | 42 | 1016.2 |
| 20260504170504 | 77 | 188 | 7.0 | 12.0 | 0.00 | 0.00 | 0.00 | 42 | 1016.2 |
| 20260504151000 | 73 | 137 | 3.0 | 9.0 | 0.00 | 0.00 | 0.00 | 51 | 1016.9 |
| 20260504150500 | 72 | 192 | 2.0 | 9.0 | 0.00 | 0.00 | 0.00 | 49 | 1016.8 |
| 20260504141004 | 67 | 216 | 2.0 | 4.0 | 0.00 | 0.00 | 0.00 | 60 | 1016.9 |
| 20260504140459 | 67 | 216 | 2.0 | 4.0 | 0.00 | 0.00 | 0.00 | 61 | 1017.0 |
| 20260504110459 | 54 | 201 | 0.0 | 0.0 | 0.00 | 0.00 | 0.00 | 85 | 1016.1 |
| 20260504100459 | 55 | 201 | 0.0 | 0.0 | 0.00 | 0.00 | 0.00 | 82 | 1016.2 |
| 20260504081959 | 56 | 202 | 0.0 | 0.0 | 0.00 | 0.00 | 0.00 | 80 | 1016.1 |
| 20260504081458 | 56 | 202 | 0.0 | 0.0 | 0.00 | 0.00 | 0.00 | 80 | 1016.0 |
| 20260504081000 | 56 | 202 | 0.0 | 0.0 | 0.00 | 0.00 | 0.00 | 79 | 1016.2 |
| 20260504080459 | 56 | 202 | 0.0 | 0.0 | 0.00 | 0.00 | 0.00 | 79 | 1016.2 |
| 20260504050500 | 61 | 202 | 2.0 | 3.0 | 0.00 | 0.00 | 0.00 | 70 | 1018.0 |
| 20260504050005 | 61 | 202 | 2.0 | 3.0 | 0.00 | 0.00 | 0.00 | 69 | 1018.0 |
| 20260504045505 | 61 | 202 | 1.0 | 3.0 | 0.00 | 0.00 | 0.00 | 68 | 1017.9 |
| 20260504044504 | 62 | 202 | 2.0 | 4.0 | 0.00 | 0.00 | 0.00 | 68 | 1018.0 |
| 20260504043500 | 62 | 202 | 3.0 | 5.0 | 0.00 | 0.00 | 0.00 | 68 | 1018.1 |
| 20260504043002 | 62 | 202 | 2.0 | 5.0 | 0.00 | 0.00 | 0.00 | 67 | 1018.2 |
| 20260504041004 | 63 | 201 | 3.0 | 7.0 | 0.00 | 0.00 | 0.00 | 67 | 1018.3 |
| 20260504040500 | 63 | 215 | 2.0 | 7.0 | 0.00 | 0.00 | 0.00 | 66 | 1018.3 |
| 20260504040005 | 63 | 213 | 5.0 | 7.0 | 0.00 | 0.00 | 0.00 | 67 | 1018.2 |
| 20260504035004 | 63 | 225 | 3.0 | 6.0 | 0.00 | 0.00 | 0.00 | 68 | 1018.2 |
| 20260504034504 | 63 | 202 | 3.0 | 6.0 | 0.00 | 0.00 | 0.00 | 67 | 1018.1 |
| 20260504034005 | 63 | 204 | 3.0 | 6.0 | 0.00 | 0.00 | 0.00 | 67 | 1018.1 |
| 20260504033500 | 63 | 203 | 4.0 | 6.0 | 0.00 | 0.00 | 0.00 | 67 | 1018.2 |
| 20260504033006 | 63 | 205 | 3.0 | 5.0 | 0.00 | 0.00 | 0.00 | 67 | 1018.2 |
| 20260504032004 | 62 | 209 | 4.0 | 7.0 | 0.00 | 0.00 | 0.00 | 67 | 1018.2 |
| 20260504031005 | 63 | 217 | 0.0 | 0.0 | 0.00 | 0.00 | 0.00 | 65 | 1018.2 |
| 20260504030003 | 63 | 217 | 1.0 | 3.0 | 0.00 | 0.00 | 0.00 | 65 | 1018.2 |
| 20260504025500 | 63 | 217 | 2.0 | 4.0 | 0.00 | 0.00 | 0.00 | 64 | 1018.1 |
| 20260504025004 | 63 | 217 | 2.0 | 4.0 | 0.00 | 0.00 | 0.00 | 64 | 1018.1 |
| 20260504024501 | 64 | 217 | 2.0 | 4.0 | 0.00 | 0.00 | 0.00 | 63 | 1018.0 |
| 20260504024005 | 64 | 221 | 1.0 | 2.0 | 0.00 | 0.00 | 0.00 | 62 | 1017.9 |
| 20260504023500 | 64 | 221 | 0.0 | 3.0 | 0.00 | 0.00 | 0.00 | 62 | 1017.8 |
| 20260504023003 | 64 | 221 | 1.0 | 3.0 | 0.00 | 0.00 | 0.00 | 62 | 1017.8 |
| 20260504022500 | 65 | 221 | 0.0 | 3.0 | 0.00 | 0.00 | 0.00 | 60 | 1017.9 |
| 20260504022004 | 65 | 221 | 2.0 | 3.0 | 0.00 | 0.00 | 0.00 | 60 | 1017.8 |
| 20260504015504 | 65 | 293 | 1.0 | 4.0 | 0.00 | 0.00 | 0.00 | 60 | 1017.5 |
| 20260504015004 | 65 | 317 | 1.0 | 2.0 | 0.00 | 0.00 | 0.00 | 59 | 1017.5 |
| 20260504014501 | 65 | 317 | 0.0 | 0.0 | 0.00 | 0.00 | 0.00 | 58 | 1017.5 |
| 20260504014004 | 66 | 317 | 0.0 | 0.0 | 0.00 | 0.00 | 0.00 | 56 | 1017.5 |
| 20260504013500 | 66 | 317 | 0.0 | 0.0 | 0.00 | 0.00 | 0.00 | 55 | 1017.4 |
| 20260504012500 | 67 | 317 | 0.0 | 3.0 | 0.00 | 0.00 | 0.00 | 53 | 1017.3 |
| 20260504012004 | 67 | 317 | 1.0 | 3.0 | 0.00 | 0.00 | 0.00 | 52 | 1017.3 |
| 20260504011500 | 67 | 318 | 0.0 | 0.0 | 0.00 | 0.00 | 0.00 | 51 | 1017.2 |
| 20260504011004 | 68 | 318 | 0.0 | 1.0 | 0.00 | 0.00 | 0.00 | 50 | 1017.1 |
| 20260504010502 | 68 | 318 | 0.0 | 1.0 | 0.00 | 0.00 | 0.00 | 49 | 1017.1 |
| 20260504010005 | 69 | 318 | 1.0 | 2.0 | 0.00 | 0.00 | 0.00 | 49 | 1017.2 |
| 20260504005500 | 69 | 318 | 1.0 | 2.0 | 0.00 | 0.00 | 0.00 | 48 | 1017.2 |
| 20260504005004 | 70 | 318 | 0.0 | 0.0 | 0.00 | 0.00 | 0.00 | 47 | 1017.0 |
| 20260504004500 | 70 | 318 | 0.0 | 1.0 | 0.00 | 0.00 | 0.00 | 45 | 1017.0 |
| 20260504004005 | 70 | 318 | 0.0 | 2.0 | 0.00 | 0.00 | 0.00 | 44 | 1016.9 |
| 20260504003459 | 71 | 318 | 0.0 | 2.0 | 0.00 | 0.00 | 0.00 | 44 | 1017.0 |
| 20260504003005 | 71 | 318 | 1.0 | 2.0 | 0.00 | 0.00 | 0.00 | 43 | 1016.9 |
| 20260504002504 | 71 | 318 | 0.0 | 4.0 | 0.00 | 0.00 | 0.00 | 43 | 1017.0 |
| 20260504002009 | 72 | 318 | 2.0 | 4.0 | 0.00 | 0.00 | 0.00 | 41 | 1017.0 |
| 20260504001500 | 72 | 288 | 2.0 | 5.0 | 0.00 | 0.00 | 0.00 | 42 | 1016.8 |
| 20260504001004 | 72 | 286 | 2.0 | 6.0 | 0.00 | 0.00 | 0.00 | 41 | 1016.9 |
| 20260504000500 | 72 | 331 | 3.0 | 6.0 | 0.00 | 0.00 | 0.00 | 41 | 1016.9 |
| 20260504000005 | 72 | 273 | 2.0 | 6.0 | 0.00 | 0.00 | 0.00 | 40 | 1016.8 |
| 20260503235501 | 73 | 257 | 2.0 | 6.0 | 0.00 | 0.00 | 0.00 | 41 | 1016.8 |
| 20260503234501 | 73 | 336 | 1.0 | 7.0 | 0.00 | 0.00 | 0.00 | 40 | 1016.9 |
| 20260503234004 | 73 | 320 | 4.0 | 7.0 | 0.00 | 0.00 | 0.00 | 40 | 1017.0 |
| 20260503233505 | 73 | 313 | 3.0 | 5.0 | 0.00 | 0.00 | 0.00 | 39 | 1017.0 |
| 20260503233004 | 73 | 300 | 3.0 | 9.0 | 0.00 | 0.00 | 0.00 | 39 | 1016.9 |
| 20260503232503 | 74 | 336 | 3.0 | 9.0 | 0.00 | 0.00 | 0.00 | 39 | 1017.0 |
| 20260503232006 | 74 | 331 | 6.0 | 9.0 | 0.00 | 0.00 | 0.00 | 37 | 1017.0 |
| 20260503230006 | 75 | 333 | 5.0 | 10.0 | 0.00 | 0.00 | 0.00 | 37 | 1017.3 |
| 20260503225504 | 75 | 243 | 3.0 | 10.0 | 0.00 | 0.00 | 0.00 | 38 | 1017.2 |
| 20260503224500 | 75 | 360 | 4.0 | 9.0 | 0.00 | 0.00 | 0.00 | 37 | 1017.3 |
| 20260503224004 | 76 | 309 | 4.0 | 9.0 | 0.00 | 0.00 | 0.00 | 37 | 1017.4 |
| 20260503223504 | 76 | 329 | 2.0 | 13.0 | 0.00 | 0.00 | 0.00 | 37 | 1017.3 |
| 20260503223005 | 76 | 303 | 5.0 | 13.0 | 0.00 | 0.00 | 0.00 | 36 | 1017.3 |
| 20260503222503 | 76 | 296 | 6.0 | 10.0 | 0.00 | 0.00 | 0.00 | 35 | 1017.3 |
| 20260503222004 | 77 | 319 | 4.0 | 7.0 | 0.00 | 0.00 | 0.00 | 36 | 1017.4 |
| 20260503221500 | 76 | 246 | 3.0 | 8.0 | 0.00 | 0.00 | 0.00 | 36 | 1017.4 |
| 20260503221005 | 76 | 309 | 2.0 | 11.0 | 0.00 | 0.00 | 0.00 | 34 | 1017.5 |
| 20260503220501 | 77 | 306 | 5.0 | 11.0 | 0.00 | 0.00 | 0.00 | 35 | 1017.6 |
| 20260503215000 | 77 | 338 | 4.0 | 13.0 | 0.00 | 0.00 | 0.00 | 35 | 1017.6 |
| 20260503214505 | 77 | 30 | 6.0 | 13.0 | 0.00 | 0.00 | 0.00 | 32 | 1017.7 |
| 20260503213459 | 78 | 344 | 6.0 | 12.0 | 0.00 | 0.00 | 0.00 | 34 | 1017.9 |
| 20260503213001 | 78 | 338 | 5.0 | 10.0 | 0.00 | 0.00 | 0.00 | 34 | 1018.0 |
| 20260503212459 | 79 | 309 | 4.0 | 10.0 | 0.00 | 0.00 | 0.00 | 34 | 1018.0 |
| 20260503211504 | 78 | 350 | 3.0 | 9.0 | 0.00 | 0.00 | 0.00 | 33 | 1018.1 |
| 20260503210504 | 78 | 346 | 6.0 | 10.0 | 0.00 | 0.00 | 0.00 | 33 | 1018.4 |
| 20260503210005 | 78 | 67 | 1.0 | 8.0 | 0.00 | 0.00 | 0.00 | 32 | 1018.4 |